Cherokee — 9HBC7 — position and weather

sailwx.info

Track history (hours):
 
Tides and Currents Weather Stations Pressure Air Temp Water Temp Dewpoint Dewpoint Depression Visibility Wind Speed Wind Dir Waves Ship Positions

Cherokee

Last reported at 2014-Oct-24 09:25 UTC. Time now 2014-Oct-24 10:20 UTC.
Position N 40°59' E 028°56'.

Length 139 m; draft 3.7 m.

Type: Cargo ship. MMSI: 215059000.

Date/timePositionNaut miles runAvg speedWind from/ knotsBaromVisibWave heightAir tempDewpointWater temp
2014-Oct-24 09:25N 40°59' E 028°56'0 0.0
2014-Oct-24 08:30N 40°59' E 028°56'0 0.0
2014-Oct-24 07:18N 40°59' E 028°56'0 0.0
2014-Oct-24 05:19N 40°59' E 028°56'0 0.0
2014-Oct-24 03:19N 40°59' E 028°56'0 0.0
2014-Oct-23 19:33N 40°59' E 028°56'0 0.0
2014-Oct-23 18:21N 40°59' E 028°56'4 3.2
2014-Oct-23 17:09N 40°56' E 028°58'5 8.3
2014-Oct-23 16:33N 40°52' E 028°53'228 5.0
2014-Oct-21 19:09N 37°18' E 027°10'9 8.2
2014-Oct-21 18:04N 37°15' E 027°20'4 8.1
2014-Oct-21 17:33N 37°13' E 027°25'  
2014-Oct-19 02:23N 37°28' E 026°07'6 6.8
2014-Oct-19 01:32N 37°28' E 026°00'  
Track history (hours):
 
Tides and Currents Weather Stations Pressure Air Temp Water Temp Dewpoint Dewpoint Depression Visibility Wind Speed Wind Dir Waves Ship Positions

Cherokee

Last reported at 2014-Oct-24 09:25 UTC. Time now 2014-Oct-24 10:20 UTC.
Position N 40°59' E 028°56'.

Length 139 m; draft 3.7 m.

Type: Cargo ship. MMSI: 215059000.

Date/timePositionNaut miles runAvg speedWind from/ knotsBaromVisibWave heightAir tempDewpointWater temp
2014-Oct-24 09:25N 40°59' E 028°56'0 0.0
2014-Oct-24 08:30N 40°59' E 028°56'0 0.0
2014-Oct-24 07:18N 40°59' E 028°56'0 0.0
2014-Oct-24 05:19N 40°59' E 028°56'0 0.0
2014-Oct-24 03:19N 40°59' E 028°56'0 0.0
2014-Oct-23 19:33N 40°59' E 028°56'0 0.0
2014-Oct-23 18:21N 40°59' E 028°56'4 3.2
2014-Oct-23 17:09N 40°56' E 028°58'5 8.3
2014-Oct-23 16:33N 40°52' E 028°53'228 5.0
2014-Oct-21 19:09N 37°18' E 027°10'9 8.2
2014-Oct-21 18:04N 37°15' E 027°20'4 8.1
2014-Oct-21 17:33N 37°13' E 027°25'  
2014-Oct-19 02:23N 37°28' E 026°07'6 6.8
2014-Oct-19 01:32N 37°28' E 026°00'  

Dump ship's entire track history